Home > Weather > Keflavík > Past weeks

Flag for Iceland Past Weather in Keflavík, Iceland — Yesterday and Last 2 Weeks

Now
50 °F

Partly cloudy.


Feels Like: 48 °F
Forecast: 50 / 55 °F
Wind: 5 mph from North

Location: Keflavikurflugvollur

Current Time: Aug 26, 2016 at 5:14:57 AM

Latest Report: Aug 26, 2016 at 4:30 AM


Visibility: N/A

Pressure: 29.89 "Hg

Humidity: 100%

Dew Point: 50 °F

Location of KeflavíkLocation

Past Weather in Keflavík — Graph

°F

Keflavík Temperature Yesterday

Maximum temperature yesterday: 54 °F (at 2:00 PM)
Minimum temperature yesterday: 48 °F (at 12:00 AM)
Average temperature yesterday: 50 °F

High & Low Weather Summary for the Past Weeks

 TemperatureHumidityPressure
High61 °F (Aug 20, 12:00 PM)100% (Aug 11, 4:17 AM)30.01 "Hg (Aug 11, 4:17 AM)
Low46 °F (Aug 18, 5:30 AM)55% (Aug 24, 12:00 PM)29.39 "Hg (Aug 11, 7:30 AM)
Average54 °F90%29.74 "Hg
* Reported Aug 11 4:17 AM — Aug 26 4:00 AM, Keflavík, Weather by CustomWeather, © 2016

Note: Actual official high and low records may vary slightly from our data, if they occured in-between our weather recording intervals... More about our weather records

Advertising

Keflavík Weather History for the Previous 24 Hours

Scroll right to see more
 ConditionsComfort  
Time TempWeatherWind HumidityBarometerVisibility
4:00 AM
Fri, Aug 26
52 °FPartly cloudy.5 mph94%29.89 "HgN/A
3:30 AM52 °FPartly cloudy.5 mph94%29.89 "HgN/A
3:00 AM50 °FPartly cloudy.6 mph100%29.89 "HgN/A
2:30 AM52 °FPartly cloudy.6 mph94%29.89 "HgN/A
2:00 AM52 °FPartly cloudy.5 mph94%29.89 "HgN/A
1:30 AM52 °FPartly cloudy.5 mph94%29.89 "HgN/A
1:00 AM50 °FPartly cloudy.6 mph100%29.89 "HgN/A
12:30 AM50 °FPartly cloudy.6 mph100%29.89 "HgN/A
12:00 AM50 °FPartly cloudy.6 mph100%29.89 "HgN/A
11:30 PM
Thu, Aug 25
50 °FPassing clouds.6 mph100%29.89 "HgN/A
11:00 PM52 °FMostly cloudy.6 mph94%29.89 "HgN/A
10:30 PM52 °FPassing clouds.6 mph94%29.89 "HgN/A
10:00 PM50 °FPassing clouds.5 mph100%29.89 "HgN/A
9:30 PM50 °FPassing clouds.6 mph100%29.89 "HgN/A
9:00 PM52 °FPartly sunny.5 mph94%29.89 "HgN/A
8:30 PM52 °FMostly cloudy.6 mph94%29.89 "HgN/A
8:00 PM52 °FCloudy.6 mph94%29.89 "HgN/A
7:30 PM52 °FCloudy.6 mph94%29.89 "HgN/A
7:00 PM52 °FBroken clouds.6 mph94%29.89 "HgN/A
6:30 PM52 °FBroken clouds.7 mph94%29.89 "HgN/A
6:00 PM52 °FBroken clouds.5 mph94%29.89 "HgN/A
5:30 PM52 °FBroken clouds.6 mph88%29.89 "HgN/A
5:00 PM54 °FBroken clouds.7 mph82%29.89 "HgN/A
4:30 PM54 °FBroken clouds.7 mph82%29.89 "HgN/A
4:00 PM54 °FBroken clouds.8 mph88%29.89 "HgN/A
3:30 PM54 °FBroken clouds.8 mph82%29.89 "HgN/A
3:00 PM54 °FPartly sunny.8 mph88%29.89 "HgN/A
2:30 PM54 °FPartly sunny.5 mph82%29.89 "HgN/A
2:00 PM54 °FPartly sunny.3 mph82%29.89 "HgN/A
1:30 PM52 °FPartly sunny.5 mph94%29.89 "HgN/A
1:00 PM52 °FLow clouds.2 mph88%29.89 "HgN/A
12:30 PM50 °FLow clouds.2 mph94%29.92 "HgN/A
12:00 PM50 °FLow clouds.3 mph94%29.92 "HgN/A
11:30 AM50 °FLow clouds.2 mph94%29.92 "HgN/A
11:00 AM50 °FMostly cloudy.3 mph100%29.92 "HgN/A
10:30 AM48 °FMostly cloudy.5 mph100%29.92 "HgN/A
10:00 AM48 °FMostly cloudy.3 mph100%29.92 "HgN/A
9:30 AM48 °FFog.2 mph100%29.92 "Hg4 mi
9:00 AM48 °FFog.3 mph100%29.92 "Hg3 mi
8:30 AM48 °FFog.3 mph100%29.92 "Hg3 mi
8:00 AM48 °FMostly cloudy.2 mph100%29.92 "HgN/A
7:30 AM48 °FFog.3 mph100%29.92 "Hg6 mi
7:00 AM48 °FFog.2 mph100%29.92 "Hg1 mi
6:30 AM48 °FFog.1 mph100%29.92 "Hg1 mi
6:00 AM48 °FFog.2 mph100%29.92 "Hg6 mi
5:30 AM48 °FFog.5 mph100%29.92 "Hg3 mi
5:00 AM48 °FFog.6 mph100%29.92 "Hg5 mi
Weather by CustomWeather, © 2016

See weather overviewHow to use our weather pages